When you browse on this site, cookies collect data to enhance your experience and personalize the content and advertising you see.
Visit our Privacy Policy to learn more. By continuing to use the site, you agree to this use of cookies and data.
  • Em Portugal
  • Lista de países
  • Para 7 dias
  • Temperatura da água
  • Mapas de satélite
  • Mapa do tempo
  • Widgets de tempo
  • user-avatar
    Iniciar Sessão

    Previsão horária em Usakla

    Hoje, 20 Fevereiro, Quarta-feira

    Tempo Temperatura Precipitação Vento Pressão Humidade
    00:00 -14°C° 0 mm 1 m/s 742 mmHg 89%
    01:00 -14°C° 0 mm 1 m/s 742 mmHg 89%
    02:00 -15°C° 0 mm 1 m/s 742 mmHg 88%
    03:00 -18°C° 0 mm 2 m/s 742 mmHg 88%
    04:00 -17°C° 0 mm 2 m/s 742 mmHg 90%
    05:00 -17°C° 0 mm 2 m/s 742 mmHg 92%
    06:00 -16°C° 0 mm 2 m/s 742 mmHg 95%
    07:00 -15°C° 0 mm 2 m/s 742 mmHg 95%
    08:00 -15°C° 0 mm 3 m/s 743 mmHg 96%
    09:00 -14°C° 0 mm 3 m/s 743 mmHg 96%
    10:00 -14°C° 0 mm 4 m/s 742 mmHg 96%
    11:00 -12°C° 0 mm 4 m/s 742 mmHg 96%
    12:00 -11°C° 0 mm 5 m/s 742 mmHg 95%
    13:00 -11°C° 0 mm 5 m/s 742 mmHg 95%
    14:00 -11°C° 0 mm 6 m/s 741 mmHg 95%
    15:00 -10°C° 0 mm 6 m/s 741 mmHg 94%
    16:00 -11°C° 0 mm 6 m/s 741 mmHg 94%
    17:00 -11°C° 0 mm 6 m/s 741 mmHg 94%
    18:00 -11°C° 0 mm 6 m/s 740 mmHg 93%
    19:00 -11°C° 0 mm 6 m/s 740 mmHg 93%
    20:00 -10°C° 0 mm 6 m/s 740 mmHg 94%
    21:00 -10°C° 0 mm 6 m/s 740 mmHg 94%
    22:00 -10°C° 0.1 mm 6 m/s 740 mmHg 94%
    23:00 -9°C° 0.1 mm 6 m/s 739 mmHg 94%

    Amanhã, 21 Fevereiro, Quinta-feira

    Tempo Temperatura Precipitação Vento Pressão Humidade
    00:00 -9°C° 0.1 mm 6 m/s 739 mmHg 94%
    01:00 -9°C° 0.1 mm 6 m/s 739 mmHg 94%
    02:00 -9°C° 0.1 mm 6 m/s 739 mmHg 94%
    03:00 -9°C° 0.1 mm 6 m/s 739 mmHg 94%
    04:00 -9°C° 0.1 mm 6 m/s 739 mmHg 94%
    05:00 -9°C° 0.1 mm 6 m/s 739 mmHg 94%
    06:00 -9°C° 0.1 mm 6 m/s 739 mmHg 94%
    07:00 -9°C° 0 mm 6 m/s 739 mmHg 94%
    08:00 -9°C° 0 mm 6 m/s 739 mmHg 94%
    09:00 -9°C° 0 mm 6 m/s 739 mmHg 94%
    10:00 -8°C° 0.1 mm 7 m/s 739 mmHg 93%
    11:00 -8°C° 0.1 mm 7 m/s 739 mmHg 93%
    12:00 -7°C° 0.1 mm 7 m/s 739 mmHg 93%
    13:00 -7°C° 0.3 mm 7 m/s 739 mmHg 93%
    14:00 -7°C° 0.3 mm 7 m/s 739 mmHg 93%
    15:00 -7°C° 0.3 mm 7 m/s 739 mmHg 93%
    16:00 -7°C° 0.3 mm 7 m/s 739 mmHg 93%
    17:00 -7°C° 0.3 mm 7 m/s 738 mmHg 93%
    18:00 -7°C° 0.3 mm 7 m/s 738 mmHg 92%
    19:00 -6°C° 0.2 mm 7 m/s 738 mmHg 92%
    20:00 -6°C° 0.2 mm 7 m/s 738 mmHg 92%
    21:00 -5°C° 0.2 mm 6 m/s 738 mmHg 92%
    22:00 -4°C° 0.2 mm 6 m/s 738 mmHg 93%
    23:00 -4°C° 0.2 mm 6 m/s 738 mmHg 93%

    Depois de amanhã, 22 Fevereiro, Sexta-feira

    Tempo Temperatura Precipitação Vento Pressão Humidade
    00:00 -4°C° 0.2 mm 6 m/s 737 mmHg 93%
    01:00 -3°C° 0.2 mm 6 m/s 737 mmHg 93%
    02:00 -3°C° 0.2 mm 6 m/s 737 mmHg 92%
    03:00 -3°C° 0.2 mm 7 m/s 736 mmHg 92%
    04:00 -3°C° 0.5 mm 7 m/s 736 mmHg 92%
    05:00 -4°C° 0.5 mm 8 m/s 735 mmHg 92%
    06:00 -4°C° 0.5 mm 8 m/s 735 mmHg 92%
    07:00 -4°C° 0.7 mm 8 m/s 735 mmHg 92%
    08:00 -5°C° 0.7 mm 8 m/s 735 mmHg 93%
    09:00 -5°C° 0.7 mm 8 m/s 734 mmHg 93%
    10:00 -5°C° 0.5 mm 8 m/s 734 mmHg 92%
    11:00 -5°C° 0.5 mm 8 m/s 734 mmHg 90%
    12:00 -5°C° 0.5 mm 8 m/s 734 mmHg 89%
    13:00 -5°C° 0.1 mm 8 m/s 734 mmHg 88%
    14:00 -5°C° 0.1 mm 8 m/s 735 mmHg 87%
    15:00 -5°C° 0.1 mm 8 m/s 735 mmHg 87%
    16:00 -7°C° 0.1 mm 7 m/s 735 mmHg 88%
    17:00 -8°C° 0.1 mm 7 m/s 736 mmHg 90%
    18:00 -10°C° 0.1 mm 6 m/s 736 mmHg 91%
    19:00 -10°C° 0.1 mm 6 m/s 737 mmHg 91%
    20:00 -10°C° 0.1 mm 6 m/s 738 mmHg 91%
    21:00 -10°C° 0.1 mm 6 m/s 738 mmHg 91%
    22:00 -11°C° 0.1 mm 7 m/s 739 mmHg 91%
    23:00 -11°C° 0.1 mm 7 m/s 739 mmHg 91%

    23 Fevereiro, Sábado

    Tempo Temperatura Precipitação Vento Pressão Humidade
    00:00 -9°C° 0.1 mm 7 m/s 740 mmHg 91%
    01:00 -11°C° 0 mm 7 m/s 741 mmHg 91%
    02:00 -12°C° 0 mm 7 m/s 741 mmHg 91%
    03:00 -13°C° 0 mm 7 m/s 742 mmHg 91%
    04:00 -14°C° 0 mm 7 m/s 743 mmHg 92%
    05:00 -15°C° 0 mm 6 m/s 743 mmHg 92%
    06:00 -16°C° 0 mm 6 m/s 744 mmHg 93%
    07:00 -15°C° 0 mm 6 m/s 745 mmHg 94%
    08:00 -15°C° 0 mm 6 m/s 746 mmHg 94%
    09:00 -15°C° 0 mm 7 m/s 746 mmHg 94%
    10:00 -15°C° 0 mm 6 m/s 747 mmHg 94%
    11:00 -14°C° 0 mm 6 m/s 748 mmHg 94%
    12:00 -14°C° 0 mm 6 m/s 748 mmHg 94%
    13:00 -14°C° 0 mm 6 m/s 749 mmHg 93%
    14:00 -13°C° 0 mm 5 m/s 749 mmHg 93%
    15:00 -13°C° 0 mm 5 m/s 749 mmHg 93%
    16:00 -13°C° 0 mm 5 m/s 750 mmHg 93%
    17:00 -13°C° 0 mm 5 m/s 750 mmHg 93%
    18:00 -14°C° 0 mm 5 m/s 751 mmHg 94%
    19:00 -14°C° 0 mm 4 m/s 751 mmHg 95%
    20:00 -14°C° 0 mm 4 m/s 752 mmHg 95%
    21:00 -15°C° 0 mm 4 m/s 752 mmHg 96%
    22:00 -15°C° 0 mm 4 m/s 752 mmHg 96%
    23:00 -15°C° 0 mm 4 m/s 752 mmHg 97%

    24 Fevereiro, Domingo

    Tempo Temperatura Precipitação Vento Pressão Humidade
    00:00 -16°C° 0 mm 4 m/s 753 mmHg 97%
    01:00 -15°C° 0 mm 3 m/s 753 mmHg 97%
    02:00 -15°C° 0 mm 3 m/s 753 mmHg 97%
    03:00 -15°C° 0 mm 3 m/s 753 mmHg 97%
    04:00 -15°C° 0 mm 3 m/s 753 mmHg 97%
    05:00 -15°C° 0 mm 3 m/s 754 mmHg 97%
    06:00 -15°C° 0 mm 3 m/s 754 mmHg 97%
    07:00 -13°C° 0 mm 2 m/s 754 mmHg 97%
    08:00 -13°C° 0 mm 2 m/s 754 mmHg 97%
    09:00 -12°C° 0 mm 2 m/s 755 mmHg 97%
    10:00 -10°C° 0 mm 2 m/s 755 mmHg 95%
    11:00 -10°C° 0 mm 2 m/s 755 mmHg 94%
    12:00 -10°C° 0 mm 3 m/s 755 mmHg 92%
    13:00 -10°C° 0 mm 3 m/s 754 mmHg 92%
    14:00 -10°C° 0 mm 3 m/s 754 mmHg 91%
    15:00 -10°C° 0 mm 3 m/s 754 mmHg 91%
    16:00 -10°C° 0 mm 2 m/s 754 mmHg 93%
    17:00 -12°C° 0 mm 2 m/s 754 mmHg 95%
    18:00 -14°C° 0 mm 2 m/s 754 mmHg 97%
    19:00 -14°C° 0 mm 2 m/s 754 mmHg 97%
    20:00 -15°C° 0 mm 2 m/s 753 mmHg 98%
    21:00 -16°C° 0 mm 2 m/s 753 mmHg 98%
    22:00 -16°C° 0 mm 2 m/s 753 mmHg 98%
    23:00 -13°C° 0 mm 1 m/s 753 mmHg 98%

    25 Fevereiro, Segunda-feira

    Tempo Temperatura Precipitação Vento Pressão Humidade
    00:00 -13°C° 0 mm 1 m/s 753 mmHg 98%
    01:00 -13°C° 0 mm 1 m/s 752 mmHg 98%
    02:00 -14°C° 0 mm 1 m/s 752 mmHg 98%
    03:00 -14°C° 0 mm 1 m/s 752 mmHg 98%
    04:00 -14°C° 0 mm 1 m/s 751 mmHg 98%
    05:00 -14°C° 0 mm 1 m/s 751 mmHg 98%
    06:00 -16°C° 0 mm 2 m/s 751 mmHg 98%
    07:00 -16°C° 0 mm 2 m/s 751 mmHg 98%
    08:00 -15°C° 0 mm 2 m/s 750 mmHg 98%
    09:00 -15°C° 0 mm 3 m/s 750 mmHg 97%
    10:00 -14°C° 0 mm 3 m/s 750 mmHg 97%
    11:00 -13°C° 0 mm 3 m/s 749 mmHg 96%
    12:00 -13°C° 0 mm 3 m/s 749 mmHg 95%
    13:00 -13°C° 0 mm 3 m/s 748 mmHg 95%
    14:00 -12°C° 0 mm 3 m/s 748 mmHg 95%
    15:00 -12°C° 0 mm 3 m/s 747 mmHg 94%
    16:00 -14°C° 0 mm 3 m/s 747 mmHg 95%
    17:00 -15°C° 0 mm 3 m/s 746 mmHg 96%
    18:00 -16°C° 0 mm 3 m/s 746 mmHg 97%
    19:00 -16°C° 0 mm 3 m/s 746 mmHg 98%
    20:00 -16°C° 0 mm 3 m/s 745 mmHg 98%
    21:00 -16°C° 0 mm 3 m/s 745 mmHg 98%
    22:00 -16°C° 0 mm 3 m/s 745 mmHg 98%
    23:00 -17°C° 0 mm 3 m/s 744 mmHg 98%
    Mostrar mais